owner,sensor,date,latitude,longitude,vertical_datum,wind_speed,wind_to_direction,wind_speed_of_gust,qcFlag 
TCOON,ioos:station:TCOON:006:1,2008-06-01T00:00:00Z,27.8217,-97.2040,0.0,8.2,122.0,9.4,'11111222,11111222,11111222' 
TCOON,ioos:station:TCOON:006:1,2008-06-01T01:00:00Z,27.8217,-97.2040,0.0,6.7,136.0,9.5,'11111222,11111222,11111222' 
TCOON,ioos:station:TCOON:006:1,2008-06-01T02:00:00Z,27.8217,-97.2040,0.0,5.8,136.0,8.1,'11111222,11111222,11111222' 
TCOON,ioos:station:TCOON:006:1,2008-06-01T03:00:00Z,27.8217,-97.2040,0.0,5.5,141.0,8.3,'11111222,11111222,11111222' 
TCOON,ioos:station:TCOON:006:1,2008-06-01T04:00:00Z,27.8217,-97.2040,0.0,6.5,138.0,8.6,'11111222,11111222,11111222' 
TCOON,ioos:station:TCOON:006:1,2008-06-01T05:00:00Z,27.8217,-97.2040,0.0,7.3,149.0,9.4,'11111222,11111222,11111222' 
TCOON,ioos:station:TCOON:006:1,2008-06-01T06:00:00Z,27.8217,-97.2040,0.0,7.0,147.0,9.2,'11111222,11111222,11111222' 
TCOON,ioos:station:TCOON:006:1,2008-06-01T07:00:00Z,27.8217,-97.2040,0.0,6.9,146.0,7.9,'11111222,11111222,11111222' 
TCOON,ioos:station:TCOON:006:1,2008-06-01T08:00:00Z,27.8217,-97.2040,0.0,6.6,150.0,8.9,'11111222,11111222,11111222' 
TCOON,ioos:station:TCOON:006:1,2008-06-01T09:00:00Z,27.8217,-97.2040,0.0,6.9,157.0,8.4,'11111222,11111222,11111222' 
TCOON,ioos:station:TCOON:006:1,2008-06-01T10:00:00Z,27.8217,-97.2040,0.0,6.3,160.0,8.7,'11111222,11111222,11111222' 
TCOON,ioos:station:TCOON:006:1,2008-06-01T11:00:00Z,27.8217,-97.2040,0.0,5.9,157.0,8.7,'11111222,11111222,11111222' 
TCOON,ioos:station:TCOON:006:1,2008-06-01T12:00:00Z,27.8217,-97.2040,0.0,6.1,150.0,7.6,'11111222,11111222,11111222' 
TCOON,ioos:station:TCOON:006:1,2008-06-01T13:00:00Z,27.8217,-97.2040,0.0,6.3,157.0,7.8,'11111222,11111222,11111222' 
TCOON,ioos:station:TCOON:006:1,2008-06-01T14:00:00Z,27.8217,-97.2040,0.0,6.4,164.0,8.1,'11111222,11111222,11111222' 
TCOON,ioos:station:TCOON:006:1,2008-06-01T15:00:00Z,27.8217,-97.2040,0.0,6.9,160.0,7.9,'11111222,11111222,11111222' 
TCOON,ioos:station:TCOON:006:1,2008-06-01T16:00:00Z,27.8217,-97.2040,0.0,6.5,145.0,7.8,'11111222,11111222,11111222' 
TCOON,ioos:station:TCOON:006:1,2008-06-01T17:00:00Z,27.8217,-97.2040,0.0,4.9,130.0,6.4,'11111222,11111222,11111222' 
TCOON,ioos:station:TCOON:006:1,2008-06-01T18:00:00Z,27.8217,-97.2040,0.0,4.6,131.0,6.5,'11111222,11111222,11111222' 
TCOON,ioos:station:TCOON:006:1,2008-06-01T19:00:00Z,27.8217,-97.2040,0.0,5.3,130.0,6.7,'11111222,11111222,11111222' 
TCOON,ioos:station:TCOON:006:1,2008-06-01T20:00:00Z,27.8217,-97.2040,0.0,5.9,118.0,7.2,'11111222,11111222,11111222' 
TCOON,ioos:station:TCOON:006:1,2008-06-01T21:00:00Z,27.8217,-97.2040,0.0,6.6,115.0,8.6,'11111222,11111222,11111222' 
TCOON,ioos:station:TCOON:006:1,2008-06-01T22:00:00Z,27.8217,-97.2040,0.0,6.7,113.0,8.4,'11111222,11111222,11111222' 
TCOON,ioos:station:TCOON:006:1,2008-06-01T23:00:00Z,27.8217,-97.2040,0.0,5.8,106.0,8.4,'11111222,11111222,11111222' 
TCOON,ioos:station:TCOON:006:1,2008-06-02T00:00:00Z,27.8217,-97.2040,0.0,5.7,108.0,8.3,'11111222,11111222,11111222' 
TCOON,ioos:station:TCOON:006:1,2008-06-02T01:00:00Z,27.8217,-97.2040,0.0,6.3,116.0,9.5,'11111222,11111222,11111222' 
TCOON,ioos:station:TCOON:006:1,2008-06-02T02:00:00Z,27.8217,-97.2040,0.0,6.4,138.0,8.4,'11111222,11111222,11111222' 
TCOON,ioos:station:TCOON:006:1,2008-06-02T03:00:00Z,27.8217,-97.2040,0.0,6.6,128.0,9.3,'11111222,11111222,11111222' 
TCOON,ioos:station:TCOON:006:1,2008-06-02T04:00:00Z,27.8217,-97.2040,0.0,7.2,147.0,8.3,'11111222,11111222,11111222' 
TCOON,ioos:station:TCOON:006:1,2008-06-02T05:00:00Z,27.8217,-97.2040,0.0,7.0,149.0,8.7,'11111222,11111222,11111222' 
TCOON,ioos:station:TCOON:006:1,2008-06-02T06:00:00Z,27.8217,-97.2040,0.0,6.3,152.0,8.3,'11111222,11111222,11111222' 
TCOON,ioos:station:TCOON:006:1,2008-06-02T07:00:00Z,27.8217,-97.2040,0.0,7.1,155.0,8.7,'11111222,11111222,11111222' 
TCOON,ioos:station:TCOON:006:1,2008-06-02T08:00:00Z,27.8217,-97.2040,0.0,6.4,164.0,7.9,'11111222,11111222,11111222' 
TCOON,ioos:station:TCOON:006:1,2008-06-02T09:00:00Z,27.8217,-97.2040,0.0,6.6,164.0,8.5,'11111222,11111222,11111222' 
TCOON,ioos:station:TCOON:006:1,2008-06-02T10:00:00Z,27.8217,-97.2040,0.0,7.0,165.0,8.2,'11111222,11111222,11111222' 
TCOON,ioos:station:TCOON:006:1,2008-06-02T11:00:00Z,27.8217,-97.2040,0.0,5.7,154.0,7.6,'11111222,11111222,11111222' 
TCOON,ioos:station:TCOON:006:1,2008-06-02T12:00:00Z,27.8217,-97.2040,0.0,4.7,156.0,6.0,'11111222,11111222,11111222' 
TCOON,ioos:station:TCOON:006:1,2008-06-02T13:00:00Z,27.8217,-97.2040,0.0,4.8,156.0,8.0,'11111222,11111222,11111222' 
TCOON,ioos:station:TCOON:006:1,2008-06-02T14:00:00Z,27.8217,-97.2040,0.0,5.9,141.0,6.7,'11111222,11111222,11111222' 
TCOON,ioos:station:TCOON:006:1,2008-06-02T15:00:00Z,27.8217,-97.2040,0.0,5.6,141.0,7.1,'11111222,11111222,11111222' 
TCOON,ioos:station:TCOON:006:1,2008-06-02T16:00:00Z,27.8217,-97.2040,0.0,5.5,145.0,7.8,'11111222,11111222,11111222' 
TCOON,ioos:station:TCOON:006:1,2008-06-02T17:00:00Z,27.8217,-97.2040,0.0,6.0,144.0,7.5,'11111222,11111222,11111222' 
TCOON,ioos:station:TCOON:006:1,2008-06-02T18:00:00Z,27.8217,-97.2040,0.0,5.8,138.0,7.8,'11111222,11111222,11111222' 
TCOON,ioos:station:TCOON:006:1,2008-06-02T19:00:00Z,27.8217,-97.2040,0.0,5.8,136.0,8.9,'11111222,11111222,11111222' 
TCOON,ioos:station:TCOON:006:1,2008-06-02T20:00:00Z,27.8217,-97.2040,0.0,5.9,130.0,7.8,'11111222,11111222,11111222' 
TCOON,ioos:station:TCOON:006:1,2008-06-02T21:00:00Z,27.8217,-97.2040,0.0,7.2,125.0,9.0,'11111222,11111222,11111222' 
TCOON,ioos:station:TCOON:006:1,2008-06-02T22:00:00Z,27.8217,-97.2040,0.0,6.8,125.0,8.9,'11111222,11111222,11111222' 
TCOON,ioos:station:TCOON:006:1,2008-06-02T23:00:00Z,27.8217,-97.2040,0.0,5.4,129.0,8.5,'11111222,11111222,11111222' 
TCOON,ioos:station:TCOON:006:1,2008-06-03T00:00:00Z,27.8217,-97.2040,0.0,5.7,132.0,8.7,'11111222,11111222,11111222' 
TCOON,ioos:station:TCOON:006:1,2008-06-03T01:00:00Z,27.8217,-97.2040,0.0,6.1,126.0,8.3,'11111222,11111222,11111222' 
TCOON,ioos:station:TCOON:006:1,2008-06-03T02:00:00Z,27.8217,-97.2040,0.0,6.2,139.0,7.9,'11111222,11111222,11111222' 
TCOON,ioos:station:TCOON:006:1,2008-06-03T03:00:00Z,27.8217,-97.2040,0.0,6.5,141.0,8.8,'11111222,11111222,11111222' 
TCOON,ioos:station:TCOON:006:1,2008-06-03T04:00:00Z,27.8217,-97.2040,0.0,6.3,144.0,9.9,'11111222,11111222,11111222' 
TCOON,ioos:station:TCOON:006:1,2008-06-03T05:00:00Z,27.8217,-97.2040,0.0,7.8,144.0,10.5,'11111222,11111222,11111222' 
TCOON,ioos:station:TCOON:006:1,2008-06-03T06:00:00Z,27.8217,-97.2040,0.0,7.8,149.0,9.2,'11111222,11111222,11111222' 
TCOON,ioos:station:TCOON:006:1,2008-06-03T07:00:00Z,27.8217,-97.2040,0.0,8.7,160.0,10.4,'11111222,11111222,11111222' 
TCOON,ioos:station:TCOON:006:1,2008-06-03T08:00:00Z,27.8217,-97.2040,0.0,7.4,157.0,9.9,'11111222,11111222,11111222' 
TCOON,ioos:station:TCOON:006:1,2008-06-03T09:00:00Z,27.8217,-97.2040,0.0,7.7,154.0,9.7,'11111222,11111222,11111222' 
TCOON,ioos:station:TCOON:006:1,2008-06-03T10:00:00Z,27.8217,-97.2040,0.0,7.4,160.0,10.3,'11111222,11111222,11111222' 
TCOON,ioos:station:TCOON:006:1,2008-06-03T11:00:00Z,27.8217,-97.2040,0.0,7.9,168.0,9.3,'11111222,11111222,11111222' 
TCOON,ioos:station:TCOON:006:1,2008-06-03T12:00:00Z,27.8217,-97.2040,0.0,7.2,167.0,11.2,'11111222,11111222,11111222' 
TCOON,ioos:station:TCOON:006:1,2008-06-03T13:00:00Z,27.8217,-97.2040,0.0,7.9,178.0,9.6,'11111222,11111222,11111222' 
TCOON,ioos:station:TCOON:006:1,2008-06-03T14:00:00Z,27.8217,-97.2040,0.0,8.4,172.0,10.5,'11111222,11111222,11111222' 
TCOON,ioos:station:TCOON:006:1,2008-06-03T15:00:00Z,27.8217,-97.2040,0.0,8.0,168.0,9.7,'11111222,11111222,11111222' 
TCOON,ioos:station:TCOON:006:1,2008-06-03T16:00:00Z,27.8217,-97.2040,0.0,7.7,169.0,9.3,'11111222,11111222,11111222' 
TCOON,ioos:station:TCOON:006:1,2008-06-03T17:00:00Z,27.8217,-97.2040,0.0,7.2,159.0,10.4,'11111222,11111222,11111222' 
TCOON,ioos:station:TCOON:006:1,2008-06-03T18:00:00Z,27.8217,-97.2040,0.0,7.8,150.0,9.8,'11111222,11111222,11111222' 
TCOON,ioos:station:TCOON:006:1,2008-06-03T19:00:00Z,27.8217,-97.2040,0.0,7.3,147.0,10.0,'11111222,11111222,11111222' 
TCOON,ioos:station:TCOON:006:1,2008-06-03T20:00:00Z,27.8217,-97.2040,0.0,7.1,135.0,9.8,'11111222,11111222,11111222' 
TCOON,ioos:station:TCOON:006:1,2008-06-03T21:00:00Z,27.8217,-97.2040,0.0,6.6,137.0,10.3,'11111222,11111222,11111222' 
TCOON,ioos:station:TCOON:006:1,2008-06-03T22:00:00Z,27.8217,-97.2040,0.0,7.3,143.0,11.0,'11111222,11111222,11111222' 
TCOON,ioos:station:TCOON:006:1,2008-06-03T23:00:00Z,27.8217,-97.2040,0.0,6.7,134.0,10.0,'11111222,11111222,11111222' 
TCOON,ioos:station:TCOON:006:1,2008-06-04T00:00:00Z,27.8217,-97.2040,0.0,7.1,147.0,10.5,'11111222,11111222,11111222' 
TCOON,ioos:station:TCOON:006:1,2008-06-04T01:00:00Z,27.8217,-97.2040,0.0,8.3,143.0,11.0,'11111222,11111222,11111222' 
TCOON,ioos:station:TCOON:006:1,2008-06-04T02:00:00Z,27.8217,-97.2040,0.0,7.5,146.0,10.5,'11111222,11111222,11111222' 
TCOON,ioos:station:TCOON:006:1,2008-06-04T03:00:00Z,27.8217,-97.2040,0.0,8.0,145.0,12.4,'11111222,11111222,11111222' 
TCOON,ioos:station:TCOON:006:1,2008-06-04T04:00:00Z,27.8217,-97.2040,0.0,7.5,146.0,11.6,'11111222,11111222,11111222' 
TCOON,ioos:station:TCOON:006:1,2008-06-04T05:00:00Z,27.8217,-97.2040,0.0,8.6,151.0,12.2,'11111222,11111222,11111222' 
TCOON,ioos:station:TCOON:006:1,2008-06-04T06:00:00Z,27.8217,-97.2040,0.0,10.3,158.0,12.1,'11111222,11111222,11111222' 
TCOON,ioos:station:TCOON:006:1,2008-06-04T07:00:00Z,27.8217,-97.2040,0.0,10.6,156.0,13.9,'11111222,11111222,11111222' 
TCOON,ioos:station:TCOON:006:1,2008-06-04T08:00:00Z,27.8217,-97.2040,0.0,10.0,171.0,12.6,'11111222,11111222,11111222' 
TCOON,ioos:station:TCOON:006:1,2008-06-04T09:00:00Z,27.8217,-97.2040,0.0,10.5,162.0,13.6,'11111222,11111222,11111222' 
TCOON,ioos:station:TCOON:006:1,2008-06-04T10:00:00Z,27.8217,-97.2040,0.0,10.2,163.0,12.8,'11111222,11111222,11111222' 
TCOON,ioos:station:TCOON:006:1,2008-06-04T11:00:00Z,27.8217,-97.2040,0.0,10.6,165.0,12.7,'11111222,11111222,11111222' 
TCOON,ioos:station:TCOON:006:1,2008-06-04T12:00:00Z,27.8217,-97.2040,0.0,8.8,160.0,11.6,'11111222,11111222,11111222' 
TCOON,ioos:station:TCOON:006:1,2008-06-04T13:00:00Z,27.8217,-97.2040,0.0,9.3,160.0,11.9,'11111222,11111222,11111222' 
TCOON,ioos:station:TCOON:006:1,2008-06-04T14:00:00Z,27.8217,-97.2040,0.0,8.8,153.0,11.9,'11111222,11111222,11111222' 
TCOON,ioos:station:TCOON:006:1,2008-06-04T15:00:00Z,27.8217,-97.2040,0.0,10.6,160.0,12.1,'11111222,11111222,11111222' 
TCOON,ioos:station:TCOON:006:1,2008-06-04T16:00:00Z,27.8217,-97.2040,0.0,9.6,160.0,12.0,'11111222,11111222,11111222' 
TCOON,ioos:station:TCOON:006:1,2008-06-04T17:00:00Z,27.8217,-97.2040,0.0,8.7,153.0,12.1,'11111222,11111222,11111222' 
TCOON,ioos:station:TCOON:006:1,2008-06-04T18:00:00Z,27.8217,-97.2040,0.0,8.2,146.0,12.5,'11111222,11111222,11111222' 
TCOON,ioos:station:TCOON:006:1,2008-06-04T19:00:00Z,27.8217,-97.2040,0.0,6.9,134.0,12.6,'11111222,11111222,11111222' 
TCOON,ioos:station:TCOON:006:1,2008-06-04T20:00:00Z,27.8217,-97.2040,0.0,6.5,141.0,11.9,'11111222,11111222,11111222' 
TCOON,ioos:station:TCOON:006:1,2008-06-04T21:00:00Z,27.8217,-97.2040,0.0,7.4,137.0,10.9,'11111222,11111222,11111222' 
TCOON,ioos:station:TCOON:006:1,2008-06-04T22:00:00Z,27.8217,-97.2040,0.0,7.9,144.0,11.9,'11111222,11111222,11111222' 
TCOON,ioos:station:TCOON:006:1,2008-06-04T23:00:00Z,27.8217,-97.2040,0.0,6.4,140.0,10.4,'11111222,11111222,11111222' 
TCOON,ioos:station:TCOON:006:1,2008-06-05T00:00:00Z,27.8217,-97.2040,0.0,6.4,134.0,8.6,'11111222,11111222,11111222' 
TCOON,ioos:station:TCOON:006:1,2008-06-05T01:00:00Z,27.8217,-97.2040,0.0,6.4,140.0,11.2,'11111222,11111222,11111222' 
TCOON,ioos:station:TCOON:006:1,2008-06-05T02:00:00Z,27.8217,-97.2040,0.0,6.9,138.0,9.8,'11111222,11111222,11111222' 
TCOON,ioos:station:TCOON:006:1,2008-06-05T03:00:00Z,27.8217,-97.2040,0.0,9.1,148.0,10.9,'11111222,11111222,11111222' 
TCOON,ioos:station:TCOON:006:1,2008-06-05T04:00:00Z,27.8217,-97.2040,0.0,8.0,136.0,12.8,'11111222,11111222,11111222' 
TCOON,ioos:station:TCOON:006:1,2008-06-05T05:00:00Z,27.8217,-97.2040,0.0,8.7,143.0,12.3,'11111222,11111222,11111222' 
TCOON,ioos:station:TCOON:006:1,2008-06-05T06:00:00Z,27.8217,-97.2040,0.0,9.4,149.0,13.6,'11111222,11111222,11111222' 
TCOON,ioos:station:TCOON:006:1,2008-06-05T07:00:00Z,27.8217,-97.2040,0.0,9.3,158.0,13.1,'11111222,11111222,11111222' 
TCOON,ioos:station:TCOON:006:1,2008-06-05T08:00:00Z,27.8217,-97.2040,0.0,11.2,159.0,14.6,'11111222,11111222,11111222' 
TCOON,ioos:station:TCOON:006:1,2008-06-05T09:00:00Z,27.8217,-97.2040,0.0,8.9,158.0,12.0,'11111222,11111222,11111222' 
TCOON,ioos:station:TCOON:006:1,2008-06-05T10:00:00Z,27.8217,-97.2040,0.0,9.6,147.0,12.8,'11111222,11111222,11111222' 
TCOON,ioos:station:TCOON:006:1,2008-06-05T11:00:00Z,27.8217,-97.2040,0.0,6.3,142.0,10.8,'11111222,11111222,11111222' 
TCOON,ioos:station:TCOON:006:1,2008-06-05T12:00:00Z,27.8217,-97.2040,0.0,7.0,141.0,11.7,'11111222,11111222,11111222' 
TCOON,ioos:station:TCOON:006:1,2008-06-05T13:00:00Z,27.8217,-97.2040,0.0,9.6,147.0,12.4,'11111222,11111222,11111222' 
TCOON,ioos:station:TCOON:006:1,2008-06-05T14:00:00Z,27.8217,-97.2040,0.0,6.5,139.0,12.7,'11111222,11111222,11111222' 
TCOON,ioos:station:TCOON:006:1,2008-06-05T15:00:00Z,27.8217,-97.2040,0.0,5.7,131.0,10.3,'11111222,11111222,11111222' 
TCOON,ioos:station:TCOON:006:1,2008-06-05T16:00:00Z,27.8217,-97.2040,0.0,7.3,142.0,11.4,'11111222,11111222,11111222' 
TCOON,ioos:station:TCOON:006:1,2008-06-05T17:00:00Z,27.8217,-97.2040,0.0,8.2,132.0,11.5,'11111222,11111222,11111222' 
TCOON,ioos:station:TCOON:006:1,2008-06-05T18:00:00Z,27.8217,-97.2040,0.0,9.3,132.0,12.6,'11111222,11111222,11111222' 
TCOON,ioos:station:TCOON:006:1,2008-06-05T19:00:00Z,27.8217,-97.2040,0.0,8.6,132.0,11.9,'11111222,11111222,11111222' 
TCOON,ioos:station:TCOON:006:1,2008-06-05T20:00:00Z,27.8217,-97.2040,0.0,8.3,131.0,11.4,'11111222,11111222,11111222' 
TCOON,ioos:station:TCOON:006:1,2008-06-05T21:00:00Z,27.8217,-97.2040,0.0,7.8,139.0,12.5,'11111222,11111222,11111222' 
TCOON,ioos:station:TCOON:006:1,2008-06-05T22:00:00Z,27.8217,-97.2040,0.0,7.7,135.0,9.9,'11111222,11111222,11111222' 
TCOON,ioos:station:TCOON:006:1,2008-06-05T23:00:00Z,27.8217,-97.2040,0.0,7.8,137.0,10.4,'11111222,11111222,11111222' 
TCOON,ioos:station:TCOON:006:1,2008-06-06T00:00:00Z,27.8217,-97.2040,0.0,7.4,136.0,10.4,'11111222,11111222,11111222' 
TCOON,ioos:station:TCOON:006:1,2008-06-06T01:00:00Z,27.8217,-97.2040,0.0,7.6,136.0,10.4,'11111222,11111222,11111222' 
TCOON,ioos:station:TCOON:006:1,2008-06-06T02:00:00Z,27.8217,-97.2040,0.0,6.3,137.0,10.2,'11111222,11111222,11111222' 
TCOON,ioos:station:TCOON:006:1,2008-06-06T03:00:00Z,27.8217,-97.2040,0.0,7.4,133.0,10.5,'11111222,11111222,11111222' 
TCOON,ioos:station:TCOON:006:1,2008-06-06T04:00:00Z,27.8217,-97.2040,0.0,8.2,136.0,10.1,'11111222,11111222,11111222' 
TCOON,ioos:station:TCOON:006:1,2008-06-06T05:00:00Z,27.8217,-97.2040,0.0,8.0,135.0,11.9,'11111222,11111222,11111222' 
TCOON,ioos:station:TCOON:006:1,2008-06-06T06:00:00Z,27.8217,-97.2040,0.0,9.3,144.0,12.3,'11111222,11111222,11111222' 
TCOON,ioos:station:TCOON:006:1,2008-06-06T07:00:00Z,27.8217,-97.2040,0.0,9.1,145.0,11.0,'11111222,11111222,11111222' 
TCOON,ioos:station:TCOON:006:1,2008-06-06T08:00:00Z,27.8217,-97.2040,0.0,7.2,142.0,11.6,'11111222,11111222,11111222' 
TCOON,ioos:station:TCOON:006:1,2008-06-06T09:00:00Z,27.8217,-97.2040,0.0,7.4,148.0,9.3,'11111222,11111222,11111222' 
TCOON,ioos:station:TCOON:006:1,2008-06-06T10:00:00Z,27.8217,-97.2040,0.0,7.7,140.0,9.8,'11111222,11111222,11111222' 
TCOON,ioos:station:TCOON:006:1,2008-06-06T11:00:00Z,27.8217,-97.2040,0.0,5.2,139.0,7.9,'11111222,11111222,11111222' 
TCOON,ioos:station:TCOON:006:1,2008-06-06T12:00:00Z,27.8217,-97.2040,0.0,5.2,137.0,8.5,'11111222,11111222,11111222' 
TCOON,ioos:station:TCOON:006:1,2008-06-06T13:00:00Z,27.8217,-97.2040,0.0,5.5,139.0,8.5,'11111222,11111222,11111222' 
TCOON,ioos:station:TCOON:006:1,2008-06-06T14:00:00Z,27.8217,-97.2040,0.0,6.4,124.0,9.4,'11111222,11111222,11111222' 
TCOON,ioos:station:TCOON:006:1,2008-06-06T15:00:00Z,27.8217,-97.2040,0.0,4.0,129.0,7.9,'11111222,11111222,11111222' 
TCOON,ioos:station:TCOON:006:1,2008-06-06T16:00:00Z,27.8217,-97.2040,0.0,5.4,117.0,7.4,'11111222,11111222,11111222' 
TCOON,ioos:station:TCOON:006:1,2008-06-06T17:00:00Z,27.8217,-97.2040,0.0,5.2,116.0,8.8,'11111222,11111222,11111222' 
TCOON,ioos:station:TCOON:006:1,2008-06-06T18:00:00Z,27.8217,-97.2040,0.0,4.5,105.0,7.7,'11111222,11111222,11111222' 
TCOON,ioos:station:TCOON:006:1,2008-06-06T19:00:00Z,27.8217,-97.2040,0.0,5.1,105.0,8.4,'11111222,11111222,11111222' 
TCOON,ioos:station:TCOON:006:1,2008-06-06T20:00:00Z,27.8217,-97.2040,0.0,6.1,100.0,10.3,'11111222,11111222,11111222' 
TCOON,ioos:station:TCOON:006:1,2008-06-06T21:00:00Z,27.8217,-97.2040,0.0,6.9,106.0,11.1,'11111222,11111222,11111222' 
TCOON,ioos:station:TCOON:006:1,2008-06-06T22:00:00Z,27.8217,-97.2040,0.0,7.3,113.0,10.6,'11111222,11111222,11111222' 
TCOON,ioos:station:TCOON:006:1,2008-06-06T23:00:00Z,27.8217,-97.2040,0.0,7.8,125.0,10.0,'11111222,11111222,11111222' 
TCOON,ioos:station:TCOON:006:1,2008-06-07T00:00:00Z,27.8217,-97.2040,0.0,6.4,110.0,8.8,'11111222,11111222,11111222' 
TCOON,ioos:station:TCOON:006:1,2008-06-07T01:00:00Z,27.8217,-97.2040,0.0,8.8,118.0,10.0,'11111222,11111222,11111222' 
TCOON,ioos:station:TCOON:006:1,2008-06-07T02:00:00Z,27.8217,-97.2040,0.0,5.9,120.0,8.3,'11111222,11111222,11111222' 
TCOON,ioos:station:TCOON:006:1,2008-06-07T03:00:00Z,27.8217,-97.2040,0.0,7.0,117.0,9.1,'11111222,11111222,11111222' 
TCOON,ioos:station:TCOON:006:1,2008-06-07T04:00:00Z,27.8217,-97.2040,0.0,7.4,116.0,9.4,'11111222,11111222,11111222' 
TCOON,ioos:station:TCOON:006:1,2008-06-07T05:00:00Z,27.8217,-97.2040,0.0,8.0,115.0,9.4,'11111222,11111222,11111222' 
TCOON,ioos:station:TCOON:006:1,2008-06-07T06:00:00Z,27.8217,-97.2040,0.0,7.1,118.0,9.6,'11111222,11111222,11111222' 
TCOON,ioos:station:TCOON:006:1,2008-06-07T07:00:00Z,27.8217,-97.2040,0.0,7.5,122.0,9.3,'11111222,11111222,11111222' 
TCOON,ioos:station:TCOON:006:1,2008-06-07T08:00:00Z,27.8217,-97.2040,0.0,6.6,129.0,8.9,'11111222,11111222,11111222' 
TCOON,ioos:station:TCOON:006:1,2008-06-07T09:00:00Z,27.8217,-97.2040,0.0,7.0,124.0,9.4,'11111222,11111222,11111222' 
TCOON,ioos:station:TCOON:006:1,2008-06-07T10:00:00Z,27.8217,-97.2040,0.0,7.1,124.0,9.8,'11111222,11111222,11111222' 
TCOON,ioos:station:TCOON:006:1,2008-06-07T11:00:00Z,27.8217,-97.2040,0.0,7.2,124.0,8.9,'11111222,11111222,11111222' 
TCOON,ioos:station:TCOON:006:1,2008-06-07T12:00:00Z,27.8217,-97.2040,0.0,7.0,116.0,9.1,'11111222,11111222,11111222' 
TCOON,ioos:station:TCOON:006:1,2008-06-07T13:00:00Z,27.8217,-97.2040,0.0,6.6,115.0,8.9,'11111222,11111222,11111222' 
TCOON,ioos:station:TCOON:006:1,2008-06-07T14:00:00Z,27.8217,-97.2040,0.0,7.6,122.0,9.2,'11111222,11111222,11111222' 
TCOON,ioos:station:TCOON:006:1,2008-06-07T15:00:00Z,27.8217,-97.2040,0.0,7.7,114.0,9.2,'11111222,11111222,11111222' 
TCOON,ioos:station:TCOON:006:1,2008-06-07T16:00:00Z,27.8217,-97.2040,0.0,6.7,124.0,9.1,'11111222,11111222,11111222' 
TCOON,ioos:station:TCOON:006:1,2008-06-07T17:00:00Z,27.8217,-97.2040,0.0,7.4,124.0,9.4,'11111222,11111222,11111222' 
TCOON,ioos:station:TCOON:006:1,2008-06-07T18:00:00Z,27.8217,-97.2040,0.0,7.5,111.0,9.0,'11111222,11111222,11111222' 
TCOON,ioos:station:TCOON:006:1,2008-06-07T19:00:00Z,27.8217,-97.2040,0.0,6.7,129.0,9.2,'11111222,11111222,11111222' 
TCOON,ioos:station:TCOON:006:1,2008-06-07T20:00:00Z,27.8217,-97.2040,0.0,6.5,121.0,8.4,'11111222,11111222,11111222' 
TCOON,ioos:station:TCOON:006:1,2008-06-07T21:00:00Z,27.8217,-97.2040,0.0,6.5,118.0,8.5,'11111222,11111222,11111222' 
TCOON,ioos:station:TCOON:006:1,2008-06-07T22:00:00Z,27.8217,-97.2040,0.0,5.5,105.0,8.1,'11111222,11111222,11111222' 
TCOON,ioos:station:TCOON:006:1,2008-06-07T23:00:00Z,27.8217,-97.2040,0.0,6.1,114.0,8.0,'11111222,11111222,11111222' 
TCOON,ioos:station:TCOON:006:1,2008-06-08T00:00:00Z,27.8217,-97.2040,0.0,6.3,120.0,9.4,'11111222,11111222,11111222' 
TCOON,ioos:station:TCOON:006:1,2008-06-08T01:00:00Z,27.8217,-97.2040,0.0,6.9,122.0,9.4,'11111222,11111222,11111222' 
TCOON,ioos:station:TCOON:006:1,2008-06-08T02:00:00Z,27.8217,-97.2040,0.0,7.7,127.0,11.3,'11111222,11111222,11111222' 
TCOON,ioos:station:TCOON:006:1,2008-06-08T03:00:00Z,27.8217,-97.2040,0.0,6.5,134.0,9.9,'11111222,11111222,11111222' 
TCOON,ioos:station:TCOON:006:1,2008-06-08T04:00:00Z,27.8217,-97.2040,0.0,7.5,132.0,9.0,'11111222,11111222,11111222' 
TCOON,ioos:station:TCOON:006:1,2008-06-08T05:00:00Z,27.8217,-97.2040,0.0,6.5,133.0,9.2,'11111222,11111222,11111222' 
TCOON,ioos:station:TCOON:006:1,2008-06-08T06:00:00Z,27.8217,-97.2040,0.0,7.0,131.0,9.0,'11111222,11111222,11111222' 
TCOON,ioos:station:TCOON:006:1,2008-06-08T07:00:00Z,27.8217,-97.2040,0.0,4.8,136.0,8.6,'11111222,11111222,11111222' 
TCOON,ioos:station:TCOON:006:1,2008-06-08T08:00:00Z,27.8217,-97.2040,0.0,5.0,134.0,7.4,'11111222,11111222,11111222' 
TCOON,ioos:station:TCOON:006:1,2008-06-08T09:00:00Z,27.8217,-97.2040,0.0,5.9,141.0,7.7,'11111222,11111222,11111222' 
TCOON,ioos:station:TCOON:006:1,2008-06-08T10:00:00Z,27.8217,-97.2040,0.0,6.7,145.0,8.7,'11111222,11111222,11111222' 
TCOON,ioos:station:TCOON:006:1,2008-06-08T11:00:00Z,27.8217,-97.2040,0.0,5.5,150.0,8.6,'11111222,11111222,11111222' 
TCOON,ioos:station:TCOON:006:1,2008-06-08T12:00:00Z,27.8217,-97.2040,0.0,5.3,145.0,8.1,'11111222,11111222,11111222' 
TCOON,ioos:station:TCOON:006:1,2008-06-08T13:00:00Z,27.8217,-97.2040,0.0,6.9,143.0,8.5,'11111222,11111222,11111222' 
TCOON,ioos:station:TCOON:006:1,2008-06-08T14:00:00Z,27.8217,-97.2040,0.0,4.0,135.0,6.8,'11111222,11111222,11111222' 
TCOON,ioos:station:TCOON:006:1,2008-06-08T15:00:00Z,27.8217,-97.2040,0.0,4.3,123.0,7.4,'11111222,11111222,11111222' 
TCOON,ioos:station:TCOON:006:1,2008-06-08T16:00:00Z,27.8217,-97.2040,0.0,5.4,130.0,7.8,'11111222,11111222,11111222' 
TCOON,ioos:station:TCOON:006:1,2008-06-08T17:00:00Z,27.8217,-97.2040,0.0,5.4,124.0,8.4,'11111222,11111222,11111222' 
TCOON,ioos:station:TCOON:006:1,2008-06-08T18:00:00Z,27.8217,-97.2040,0.0,5.3,123.0,7.8,'11111222,11111222,11111222' 
TCOON,ioos:station:TCOON:006:1,2008-06-08T19:00:00Z,27.8217,-97.2040,0.0,4.6,109.0,8.9,'11111222,11111222,11111222' 
TCOON,ioos:station:TCOON:006:1,2008-06-08T20:00:00Z,27.8217,-97.2040,0.0,5.2,109.0,7.4,'11111222,11111222,11111222' 
TCOON,ioos:station:TCOON:006:1,2008-06-08T21:00:00Z,27.8217,-97.2040,0.0,5.7,107.0,8.2,'11111222,11111222,11111222' 
TCOON,ioos:station:TCOON:006:1,2008-06-08T22:00:00Z,27.8217,-97.2040,0.0,6.2,99.0,8.9,'11111222,11111222,11111222' 
TCOON,ioos:station:TCOON:006:1,2008-06-08T23:00:00Z,27.8217,-97.2040,0.0,5.5,109.0,9.3,'11111222,11111222,11111222' 
TCOON,ioos:station:TCOON:006:1,2008-06-09T00:00:00Z,27.8217,-97.2040,0.0,5.5,116.0,9.1,'11111222,11111222,11111222' 
TCOON,ioos:station:TCOON:006:1,2008-06-09T01:00:00Z,27.8217,-97.2040,0.0,6.5,121.0,9.1,'11111222,11111222,11111222' 
TCOON,ioos:station:TCOON:006:1,2008-06-09T02:00:00Z,27.8217,-97.2040,0.0,6.9,142.0,9.4,'11111222,11111222,11111222' 
TCOON,ioos:station:TCOON:006:1,2008-06-09T03:00:00Z,27.8217,-97.2040,0.0,6.3,136.0,9.1,'11111222,11111222,11111222' 
TCOON,ioos:station:TCOON:006:1,2008-06-09T04:00:00Z,27.8217,-97.2040,0.0,8.7,142.0,11.4,'11111222,11111222,11111222' 
TCOON,ioos:station:TCOON:006:1,2008-06-09T05:00:00Z,27.8217,-97.2040,0.0,7.7,154.0,9.6,'11111222,11111222,11111222' 
TCOON,ioos:station:TCOON:006:1,2008-06-09T06:00:00Z,27.8217,-97.2040,0.0,7.4,147.0,11.2,'11111222,11111222,11111222' 
TCOON,ioos:station:TCOON:006:1,2008-06-09T07:00:00Z,27.8217,-97.2040,0.0,6.7,152.0,10.3,'11111222,11111222,11111222' 
TCOON,ioos:station:TCOON:006:1,2008-06-09T08:00:00Z,27.8217,-97.2040,0.0,8.1,149.0,10.4,'11111222,11111222,11111222' 
TCOON,ioos:station:TCOON:006:1,2008-06-09T09:00:00Z,27.8217,-97.2040,0.0,6.5,157.0,8.2,'11111222,11111222,11111222' 
TCOON,ioos:station:TCOON:006:1,2008-06-09T10:00:00Z,27.8217,-97.2040,0.0,6.4,154.0,8.6,'11111222,11111222,11111222' 